When you browse on this site, cookies collect data to enhance your experience and personalize the content and advertising you see.
Visit our Privacy Policy to learn more. By continuing to use the site, you agree to this use of cookies and data.
  • In Deutschland
  • Länderverzeichnis
  • Für 7 Tage
  • Wassertemperatur
  • Wetterkarte
  • Widgets
  • user-avatar
    Anmelden

    Stündliche Wetter Kalgoorlie

    Heute, 10 Dezember, Dienstag

    Zeit Temperatur Niederschläge Wind Luftdruck Luftfeuchtigkeit
    00:00 +20°C° 0 mm 7 m/S 732 mmHg 38%
    01:00 +18°C° 0 mm 7 m/S 732 mmHg 47%
    02:00 +16°C° 0 mm 7 m/S 732 mmHg 55%
    03:00 +15°C° 0 mm 6 m/S 732 mmHg 59%
    04:00 +15°C° 0 mm 6 m/S 732 mmHg 63%
    05:00 +14°C° 0 mm 5 m/S 732 mmHg 67%
    06:00 +16°C° 0 mm 5 m/S 733 mmHg 58%
    07:00 +19°C° 0 mm 6 m/S 733 mmHg 48%
    08:00 +22°C° 0 mm 6 m/S 733 mmHg 37%
    09:00 +26°C° 0 mm 6 m/S 733 mmHg 30%
    10:00 +29°C° 0 mm 6 m/S 733 mmHg 23%
    11:00 +32°C° 0 mm 6 m/S 733 mmHg 16%
    12:00 +33°C° 0 mm 5 m/S 732 mmHg 14%
    13:00 +34°C° 0 mm 5 m/S 731 mmHg 13%
    14:00 +35°C° 0 mm 6 m/S 731 mmHg 12%
    15:00 +35°C° 0 mm 5 m/S 731 mmHg 12%
    16:00 +35°C° 0 mm 5 m/S 731 mmHg 12%
    17:00 +34°C° 0 mm 5 m/S 731 mmHg 12%
    18:00 +33°C° 0 mm 5 m/S 731 mmHg 13%
    19:00 +30°C° 0 mm 5 m/S 731 mmHg 15%
    20:00 +28°C° 0 mm 5 m/S 731 mmHg 16%
    21:00 +27°C° 0 mm 6 m/S 731 mmHg 21%
    22:00 +26°C° 0 mm 8 m/S 732 mmHg 25%
    23:00 +24°C° 0 mm 9 m/S 732 mmHg 30%

    Morgen, 11 Dezember, Mittwoch

    Zeit Temperatur Niederschläge Wind Luftdruck Luftfeuchtigkeit
    00:00 +22°C° 0.1 mm 9 m/S 732 mmHg 38%
    01:00 +21°C° 0.1 mm 8 m/S 731 mmHg 47%
    02:00 +18°C° 0.1 mm 8 m/S 731 mmHg 56%
    03:00 +17°C° 0 mm 7 m/S 732 mmHg 56%
    04:00 +17°C° 0 mm 7 m/S 732 mmHg 55%
    05:00 +16°C° 0 mm 6 m/S 732 mmHg 55%
    06:00 +19°C° 0 mm 6 m/S 733 mmHg 51%
    07:00 +20°C° 0 mm 6 m/S 733 mmHg 47%
    08:00 +21°C° 0 mm 7 m/S 733 mmHg 44%
    09:00 +23°C° 0.1 mm 6 m/S 733 mmHg 37%
    10:00 +26°C° 0.1 mm 6 m/S 734 mmHg 31%
    11:00 +29°C° 0.1 mm 6 m/S 734 mmHg 25%
    12:00 +30°C° 0 mm 5 m/S 733 mmHg 22%
    13:00 +32°C° 0 mm 5 m/S 732 mmHg 20%
    14:00 +33°C° 0 mm 5 m/S 732 mmHg 17%
    15:00 +34°C° 0 mm 5 m/S 732 mmHg 17%
    16:00 +34°C° 0 mm 5 m/S 732 mmHg 16%
    17:00 +34°C° 0 mm 5 m/S 732 mmHg 16%
    18:00 +33°C° 0 mm 5 m/S 732 mmHg 17%
    19:00 +30°C° 0 mm 5 m/S 732 mmHg 19%
    20:00 +28°C° 0 mm 5 m/S 732 mmHg 20%
    21:00 +26°C° 0 mm 6 m/S 733 mmHg 26%
    22:00 +24°C° 0 mm 7 m/S 733 mmHg 32%
    23:00 +22°C° 0 mm 9 m/S 733 mmHg 38%

    übermorgen, 12 Dezember, Donnerstag

    Zeit Temperatur Niederschläge Wind Luftdruck Luftfeuchtigkeit
    00:00 +20°C° 0 mm 8 m/S 733 mmHg 43%
    01:00 +18°C° 0 mm 7 m/S 733 mmHg 49%
    02:00 +17°C° 0 mm 6 m/S 733 mmHg 55%
    03:00 +16°C° 0 mm 6 m/S 733 mmHg 58%
    04:00 +15°C° 0 mm 6 m/S 734 mmHg 61%
    05:00 +14°C° 0 mm 6 m/S 734 mmHg 64%
    06:00 +16°C° 0 mm 6 m/S 734 mmHg 56%
    07:00 +18°C° 0 mm 7 m/S 734 mmHg 48%
    08:00 +21°C° 0 mm 7 m/S 735 mmHg 40%
    09:00 +24°C° 0 mm 7 m/S 735 mmHg 33%
    10:00 +27°C° 0 mm 7 m/S 735 mmHg 26%
    11:00 +30°C° 0 mm 7 m/S 735 mmHg 19%
    12:00 +32°C° 0 mm 6 m/S 734 mmHg 17%
    13:00 +34°C° 0 mm 6 m/S 733 mmHg 15%
    14:00 +35°C° 0 mm 6 m/S 732 mmHg 13%
    15:00 +35°C° 0 mm 6 m/S 732 mmHg 13%
    16:00 +35°C° 0 mm 6 m/S 732 mmHg 13%
    17:00 +35°C° 0 mm 6 m/S 732 mmHg 13%
    18:00 +33°C° 0 mm 5 m/S 732 mmHg 15%
    19:00 +30°C° 0 mm 5 m/S 732 mmHg 17%
    20:00 +28°C° 0 mm 5 m/S 733 mmHg 20%
    21:00 +27°C° 0 mm 6 m/S 733 mmHg 26%
    22:00 +24°C° 0 mm 8 m/S 733 mmHg 32%
    23:00 +23°C° 0 mm 9 m/S 734 mmHg 37%

    13 Dezember, Freitag

    Zeit Temperatur Niederschläge Wind Luftdruck Luftfeuchtigkeit
    00:00 +22°C° 0 mm 8 m/S 733 mmHg 42%
    01:00 +21°C° 0 mm 8 m/S 733 mmHg 46%
    02:00 +18°C° 0 mm 7 m/S 733 mmHg 50%
    03:00 +19°C° 0 mm 6 m/S 733 mmHg 53%
    04:00 +17°C° 0 mm 5 m/S 733 mmHg 56%
    05:00 +16°C° 0 mm 5 m/S 733 mmHg 59%
    06:00 +20°C° 0 mm 5 m/S 733 mmHg 50%
    07:00 +22°C° 0 mm 5 m/S 734 mmHg 42%
    08:00 +24°C° 0 mm 6 m/S 734 mmHg 34%
    09:00 +28°C° 0 mm 5 m/S 734 mmHg 29%
    10:00 +30°C° 0 mm 5 m/S 733 mmHg 24%
    11:00 +33°C° 0 mm 4 m/S 733 mmHg 19%
    12:00 +34°C° 0 mm 4 m/S 732 mmHg 16%
    13:00 +36°C° 0 mm 4 m/S 732 mmHg 14%
    14:00 +37°C° 0 mm 4 m/S 731 mmHg 12%
    15:00 +37°C° 0 mm 4 m/S 731 mmHg 11%
    16:00 +37°C° 0 mm 4 m/S 730 mmHg 10%
    17:00 +37°C° 0 mm 4 m/S 730 mmHg 10%
    18:00 +35°C° 0 mm 4 m/S 730 mmHg 11%
    19:00 +33°C° 0 mm 4 m/S 730 mmHg 12%
    20:00 +30°C° 0 mm 5 m/S 730 mmHg 13%
    21:00 +29°C° 0 mm 5 m/S 731 mmHg 14%
    22:00 +28°C° 0 mm 5 m/S 731 mmHg 14%
    23:00 +27°C° 0 mm 5 m/S 731 mmHg 15%

    14 Dezember, Samstag

    Zeit Temperatur Niederschläge Wind Luftdruck Luftfeuchtigkeit
    00:00 +26°C° 0 mm 5 m/S 730 mmHg 18%
    01:00 +24°C° 0 mm 6 m/S 730 mmHg 21%
    02:00 +22°C° 0 mm 6 m/S 729 mmHg 25%
    03:00 +22°C° 0 mm 6 m/S 729 mmHg 25%
    04:00 +21°C° 0 mm 5 m/S 729 mmHg 25%
    05:00 +21°C° 0 mm 5 m/S 730 mmHg 25%
    06:00 +25°C° 0 mm 5 m/S 730 mmHg 21%
    07:00 +28°C° 0 mm 5 m/S 730 mmHg 18%
    08:00 +33°C° 0 mm 5 m/S 730 mmHg 14%
    09:00 +34°C° 0 mm 4 m/S 730 mmHg 12%
    10:00 +36°C° 0 mm 3 m/S 730 mmHg 11%
    11:00 +38°C° 0 mm 2 m/S 729 mmHg 10%
    12:00 +38°C° 0 mm 2 m/S 729 mmHg 9%
    13:00 +39°C° 0 mm 2 m/S 728 mmHg 8%
    14:00 +40°C° 0 mm 3 m/S 727 mmHg 8%
    15:00 +40°C° 0 mm 3 m/S 727 mmHg 7%
    16:00 +40°C° 0 mm 2 m/S 726 mmHg 7%
    17:00 +40°C° 0 mm 2 m/S 726 mmHg 7%
    18:00 +37°C° 0 mm 2 m/S 726 mmHg 8%
    19:00 +35°C° 0 mm 2 m/S 726 mmHg 9%
    20:00 +32°C° 0 mm 2 m/S 726 mmHg 11%
    21:00 +31°C° 0 mm 2 m/S 726 mmHg 11%
    22:00 +31°C° 0 mm 3 m/S 726 mmHg 11%
    23:00 +30°C° 0 mm 3 m/S 725 mmHg 11%

    15 Dezember, Sonntag

    Zeit Temperatur Niederschläge Wind Luftdruck Luftfeuchtigkeit
    00:00 +29°C° 0 mm 3 m/S 725 mmHg 11%
    01:00 +29°C° 0 mm 3 m/S 725 mmHg 11%
    02:00 +28°C° 0 mm 4 m/S 724 mmHg 11%
    03:00 +28°C° 0 mm 4 m/S 725 mmHg 12%
    04:00 +27°C° 0 mm 4 m/S 725 mmHg 13%
    05:00 +27°C° 0 mm 4 m/S 725 mmHg 13%
    06:00 +30°C° 0 mm 5 m/S 725 mmHg 12%
    07:00 +34°C° 0 mm 6 m/S 726 mmHg 11%
    08:00 +38°C° 0 mm 7 m/S 726 mmHg 10%
    09:00 +40°C° 0 mm 7 m/S 726 mmHg 10%
    10:00 +41°C° 0 mm 6 m/S 725 mmHg 9%
    11:00 +44°C° 0 mm 6 m/S 725 mmHg 9%
    12:00 +44°C° 0 mm 6 m/S 724 mmHg 9%
    13:00 +45°C° 0 mm 6 m/S 724 mmHg 9%
    14:00 +46°C° 0 mm 6 m/S 723 mmHg 8%
    15:00 +45°C° 0 mm 6 m/S 723 mmHg 9%
    16:00 +45°C° 0 mm 6 m/S 722 mmHg 10%
    17:00 +44°C° 0 mm 6 m/S 722 mmHg 11%
    18:00 +41°C° 0 mm 8 m/S 722 mmHg 17%
    19:00 +38°C° 0 mm 10 m/S 723 mmHg 23%
    20:00 +34°C° 0 mm 12 m/S 723 mmHg 29%
    21:00 +34°C° 0 mm 11 m/S 723 mmHg 30%
    22:00 +33°C° 0 mm 9 m/S 723 mmHg 30%
    23:00 +33°C° 0 mm 8 m/S 724 mmHg 31%
    Mehr zeigen